Regional Weather Roundup
Issued by NWS State College, PA

Home | Current Version | Previous Version | Graphics & Text | Print | Product List | Glossary Off
Versions: 1 2 3 4 5 6 7 8 9 10 11 12 13 14 15 16 17 18 19 20 21 22 23 24 25 26 27 28 29 30 31 32 33 34 35 36 37 38 39 40 41 42 43 44 45 46 47 48 49 50

000
ASUS41 KCTP 050703
RWRCTP

REGIONAL WEATHER ROUNDUP
NATIONAL WEATHER SERVICE STATE COLLEGE PA
200 AM EST MON DEC 05 2016

Note: "fair" indicates few or no clouds below 12,000 feet with no
significant weather and/or obstructions to visibility.

* = STATION THAT DOES NOT REPORT PRECIPITATION /E.G. RAIN...SNOW...ETC/
    THUNDER OR FOG.

PAZ002>004-007>009-013>016-020>023-029>032-050800-
WESTERN PENNSYLVANIA

CITY           SKY/WX    TMP DP  RH WIND       PRES   REMARKS
ERIE           LGT RAIN  37  34  89 SW13      29.81R
MEADVILLE      CLOUDY    34  31  88 S6        29.80R FOG
FRANKLIN*        N/A     34  28  80 S8        29.83R
NEW CASTLE     MIX PCPN  37  36  96 SW6       29.85R
BEAVER COUNTY  NOT AVBL
BUTLER*        CLOUDY    37  34  87 SW7       29.86S
PITTSBURGH INT CLOUDY    41  39  93 SW9       29.85R
PITTSBURGH     CLOUDY    40  37  89 SW13      29.85R
INDIANA*       CLOUDY    37  37 100 SW5       29.87R FOG
LATROBE        LGT RAIN  43  43 100 SW15G21   29.87R
WASHINGTON CO* CLOUDY    43  39  87 SW13G22   29.88R
$$

PAZ004>006-010>012-017>019-024>028-033>037-041-042-045-046-049>053-050800-
CENTRAL PENNSYLVANIA

CITY           SKY/WX    TMP DP  RH WIND       PRES   REMARKS
BRADFORD       LGT SNOW  32  30  92 S8G23     29.79S FOG
DUBOIS         CLOUDY    33  30  88 SE7       29.81F FOG
CLEARFIELD     LGT SNOW  33  32  96 NE3       29.86S FOG
JOHNSTOWN      LGT RAIN  33  33 100 S8        29.82F FOG
ALTOONA        MIX PCPN  35  33  92 S7        29.89S FOG
STATE COLLEGE  MIX PCPN  32  32  99 CALM      29.90S
WILLIAMSPORT   LGT SNOW  36  33  89 E13G22    29.95S FOG
SELINSGROVE    LGT RAIN  36  36 100 S8        29.98F FOG
FT INDIANTOWN  MIX PCPN  35  35 100 S5        30.01F
CAPITAL CITY   LGT RAIN  36  32  85 SE6       29.99F FOG
HARRISBURG     LGTSLEET  36  35  96 SE10      30.00S
YORK           LGT RAIN  34  34 100 SE6       30.00F FOG
$$

PAZ038>040-043-044-047-048-054-055-060>062-067>071-050800-
EASTERN PENNSYLVANIA

CITY           SKY/WX    TMP DP  RH WIND       PRES   REMARKS
SCRANTON       LGT SNOW  34  30  85 CALM      30.00R VSB 3/4
MOUNT POCONO   LGT SNOW  29  23  78 SE10      29.98R
ALLENTOWN      LGT RAIN  39  32  76 S10       30.05R
QUAKERTOWN*    CLOUDY    37  34  87 S6        30.06R
READING        RAIN      37  33  85 S8        30.02S
LANCASTER      RAIN      38  37  97 S8        30.03R FOG
COATESVILLE    MIX PCPN  36  34  93 VRB6G13   30.03R
POTTSTOWN      LGT RAIN  38  34  85 S5        30.06S FOG
BLUE BELL      CLOUDY    37  34  87 S5        30.06R
DOYLESTOWN     LGT RAIN  39  35  86 S8        30.05S
WILLOW GROVE   NOT AVBL
NORTH PHILA    LGT RAIN  41  36  82 S5        30.08F
PHILADELPHIA   LGT RAIN  41  35  79 S9        30.08R
$$




USA.gov is the U.S. government's official web portal to all federal, state and local government web resources and services.